| time (UTC) | temp F | wind direction | speed MPH | gust MPH | rain 1hr in | rain 24hr in | rain mn in | humidity % | barometer mb |
| 20260505060904 | 57 | 0 | 0.0 | 3.0 | 0.00 | 0.00 | 0.00 | 75 | 1020.9 |
| 20260505060005 | 57 | 0 | 0.0 | 2.0 | 0.00 | 0.00 | 0.00 | 75 | 1020.9 |
| 20260505055404 | 57 | 0 | 0.0 | 2.0 | 0.00 | 0.00 | 0.00 | 75 | 1020.9 |
| 20260505054525 | 57 | 157 | 1.0 | 2.0 | 0.00 | 0.00 | 0.00 | 75 | 1020.8 |
| 20260505053604 | 57 | 157 | 1.0 | 3.0 | 0.00 | 0.00 | 0.00 | 74 | 1020.7 |
| 20260505052704 | 57 | 157 | 1.0 | 5.0 | 0.00 | 0.00 | 0.00 | 74 | 1020.7 |
| 20260505051804 | 57 | 157 | 1.0 | 5.0 | 0.00 | 0.00 | 0.00 | 74 | 1020.5 |
| 20260505050904 | 57 | 157 | 1.0 | 4.0 | 0.00 | 0.00 | 0.00 | 74 | 1020.4 |
| 20260505040904 | 58 | 157 | 3.0 | 6.0 | 0.00 | 0.00 | 0.00 | 72 | 1020.1 |
| 20260505040005 | 58 | 157 | 2.0 | 8.0 | 0.00 | 0.00 | 0.00 | 73 | 1020.0 |
| 20260505035404 | 57 | 157 | 3.0 | 6.0 | 0.00 | 0.00 | 0.00 | 73 | 1019.9 |
| 20260505034504 | 57 | 157 | 4.0 | 11.0 | 0.00 | 0.00 | 0.00 | 73 | 1020.0 |
| 20260505033604 | 57 | 157 | 3.0 | 11.0 | 0.00 | 0.00 | 0.00 | 74 | 1020.0 |
| 20260505032704 | 57 | 157 | 3.0 | 9.0 | 0.00 | 0.00 | 0.00 | 74 | 1019.9 |
| 20260505031825 | 57 | 157 | 3.0 | 6.0 | 0.00 | 0.00 | 0.00 | 75 | 1019.9 |
| 20260505030925 | 57 | 157 | 3.0 | 10.0 | 0.00 | 0.00 | 0.00 | 75 | 1020.0 |
| 20260505030004 | 57 | 157 | 3.0 | 9.0 | 0.00 | 0.00 | 0.00 | 74 | 1019.9 |
| 20260505025404 | 57 | 157 | 3.0 | 9.0 | 0.00 | 0.00 | 0.00 | 74 | 1019.9 |
| 20260505024504 | 58 | 157 | 3.0 | 10.0 | 0.00 | 0.00 | 0.00 | 74 | 1020.0 |
| 20260505023604 | 58 | 157 | 4.0 | 11.0 | 0.00 | 0.00 | 0.00 | 73 | 1019.9 |
| 20260505022704 | 58 | 157 | 4.0 | 10.0 | 0.00 | 0.00 | 0.00 | 73 | 1019.9 |
| 20260505021825 | 57 | 157 | 4.0 | 16.0 | 0.00 | 0.00 | 0.00 | 75 | 1019.9 |
| 20260505020904 | 57 | 157 | 5.0 | 12.0 | 0.00 | 0.00 | 0.00 | 76 | 1020.0 |
| 20260505020004 | 57 | 157 | 5.0 | 12.0 | 0.00 | 0.00 | 0.00 | 76 | 1020.1 |
| 20260505015404 | 56 | 157 | 5.0 | 16.0 | 0.00 | 0.00 | 0.00 | 77 | 1020.2 |
| 20260505014504 | 56 | 157 | 4.0 | 10.0 | 0.00 | 0.00 | 0.00 | 78 | 1020.2 |
| 20260505013604 | 56 | 157 | 4.0 | 12.0 | 0.00 | 0.00 | 0.00 | 80 | 1020.2 |
| 20260505012725 | 56 | 157 | 4.0 | 10.0 | 0.00 | 0.00 | 0.00 | 81 | 1020.3 |
| 20260505011804 | 56 | 157 | 3.0 | 12.0 | 0.00 | 0.00 | 0.00 | 81 | 1020.3 |
| 20260505010904 | 56 | 157 | 3.0 | 10.0 | 0.00 | 0.00 | 0.00 | 82 | 1020.3 |
| 20260505010004 | 56 | 157 | 4.0 | 9.0 | 0.00 | 0.00 | 0.00 | 82 | 1020.2 |
| 20260505005404 | 56 | 157 | 5.0 | 13.0 | 0.00 | 0.00 | 0.00 | 81 | 1020.2 |
| 20260505004504 | 56 | 157 | 5.0 | 15.0 | 0.00 | 0.00 | 0.00 | 81 | 1020.1 |
| 20260505003604 | 56 | 157 | 4.0 | 11.0 | 0.00 | 0.00 | 0.00 | 81 | 1019.9 |
| 20260505002704 | 56 | 157 | 4.0 | 11.0 | 0.00 | 0.00 | 0.00 | 82 | 1019.8 |
| 20260505001804 | 55 | 157 | 4.0 | 12.0 | 0.00 | 0.00 | 0.00 | 83 | 1019.7 |
| 20260505000904 | 55 | 157 | 4.0 | 12.0 | 0.00 | 0.00 | 0.00 | 83 | 1019.6 |
| 20260505000005 | 55 | 157 | 3.0 | 13.0 | 0.00 | 0.00 | 0.00 | 83 | 1019.6 |
| 20260504235404 | 55 | 157 | 4.0 | 14.0 | 0.00 | 0.00 | 0.00 | 83 | 1019.5 |
| 20260504234504 | 55 | 157 | 3.0 | 11.0 | 0.00 | 0.00 | 0.00 | 83 | 1019.4 |
| 20260504233604 | 55 | 157 | 4.0 | 8.0 | 0.00 | 0.00 | 0.00 | 84 | 1019.4 |
| 20260504232704 | 55 | 157 | 4.0 | 12.0 | 0.00 | 0.00 | 0.00 | 85 | 1019.4 |
| 20260504231804 | 55 | 157 | 3.0 | 12.0 | 0.00 | 0.00 | 0.00 | 86 | 1019.4 |
| 20260504230904 | 55 | 157 | 2.0 | 8.0 | 0.00 | 0.00 | 0.00 | 88 | 1019.2 |
| 20260504230005 | 54 | 157 | 3.0 | 6.0 | 0.00 | 0.00 | 0.00 | 89 | 1019.1 |
| 20260504225404 | 54 | 157 | 4.0 | 11.0 | 0.00 | 0.00 | 0.00 | 89 | 1019.1 |
| 20260504224504 | 54 | 157 | 4.0 | 11.0 | 0.00 | 0.00 | 0.00 | 90 | 1019.1 |
| 20260504223604 | 54 | 157 | 3.0 | 11.0 | 0.00 | 0.00 | 0.00 | 90 | 1019.0 |
| 20260504222725 | 54 | 157 | 3.0 | 10.0 | 0.00 | 0.00 | 0.00 | 91 | 1018.8 |
| 20260504221804 | 53 | 157 | 3.0 | 10.0 | 0.00 | 0.00 | 0.00 | 91 | 1018.5 |
| 20260504220904 | 53 | 157 | 3.0 | 10.0 | 0.00 | 0.00 | 0.00 | 91 | 1018.4 |
| 20260504220004 | 53 | 157 | 3.0 | 10.0 | 0.00 | 0.00 | 0.00 | 91 | 1018.3 |
| 20260504215404 | 53 | 157 | 3.0 | 10.0 | 0.00 | 0.00 | 0.00 | 91 | 1018.2 |
| 20260504214504 | 53 | 157 | 3.0 | 11.0 | 0.00 | 0.00 | 0.00 | 91 | 1017.9 |
| 20260504213604 | 53 | 157 | 2.0 | 9.0 | 0.00 | 0.00 | 0.00 | 91 | 1017.7 |
| 20260504212725 | 53 | 157 | 2.0 | 5.0 | 0.00 | 0.00 | 0.00 | 91 | 1017.6 |
| 20260504211804 | 53 | 157 | 3.0 | 8.0 | 0.00 | 0.00 | 0.00 | 90 | 1017.4 |
| 20260504210904 | 54 | 157 | 3.0 | 9.0 | 0.00 | 0.00 | 0.00 | 90 | 1017.3 |
| 20260504210004 | 54 | 157 | 3.0 | 11.0 | 0.00 | 0.00 | 0.00 | 90 | 1017.2 |
| 20260504205406 | 54 | 157 | 3.0 | 11.0 | 0.00 | 0.00 | 0.00 | 89 | 1017.2 |
| 20260504204504 | 54 | 157 | 4.0 | 9.0 | 0.00 | 0.00 | 0.00 | 89 | 1017.1 |
| 20260504203604 | 54 | 157 | 4.0 | 13.0 | 0.00 | 0.00 | 0.00 | 88 | 1016.9 |
| 20260504202704 | 54 | 157 | 4.0 | 11.0 | 0.00 | 0.00 | 0.00 | 87 | 1016.7 |
| 20260504201804 | 54 | 157 | 4.0 | 11.0 | 0.00 | 0.00 | 0.00 | 87 | 1016.5 |
| 20260504200925 | 54 | 157 | 4.0 | 11.0 | 0.00 | 0.00 | 0.00 | 87 | 1016.3 |
| 20260504200004 | 54 | 157 | 4.0 | 10.0 | 0.00 | 0.00 | 0.00 | 86 | 1016.2 |
| 20260504195404 | 54 | 157 | 4.0 | 11.0 | 0.00 | 0.00 | 0.00 | 86 | 1016.2 |
| 20260504194504 | 54 | 157 | 4.0 | 14.0 | 0.00 | 0.00 | 0.00 | 86 | 1016.1 |
| 20260504193604 | 54 | 157 | 4.0 | 9.0 | 0.00 | 0.00 | 0.00 | 85 | 1016.1 |
| 20260504192704 | 54 | 157 | 5.0 | 12.0 | 0.00 | 0.00 | 0.00 | 85 | 1016.0 |
| 20260504191825 | 54 | 157 | 5.0 | 15.0 | 0.00 | 0.00 | 0.00 | 85 | 1015.9 |
| 20260504190904 | 54 | 157 | 4.0 | 11.0 | 0.00 | 0.00 | 0.00 | 85 | 1015.8 |
| 20260504190004 | 54 | 157 | 3.0 | 9.0 | 0.00 | 0.00 | 0.00 | 85 | 1015.7 |
| 20260504185404 | 54 | 157 | 3.0 | 8.0 | 0.00 | 0.00 | 0.00 | 85 | 1015.6 |
| 20260504184504 | 54 | 157 | 4.0 | 10.0 | 0.00 | 0.00 | 0.00 | 85 | 1015.6 |
| 20260504183604 | 55 | 157 | 5.0 | 14.0 | 0.00 | 0.00 | 0.00 | 85 | 1015.4 |
| 20260504182704 | 55 | 157 | 5.0 | 13.0 | 0.00 | 0.00 | 0.00 | 84 | 1015.2 |
| 20260504181804 | 55 | 157 | 4.0 | 12.0 | 0.00 | 0.00 | 0.00 | 84 | 1015.2 |
| 20260504180904 | 55 | 157 | 4.0 | 12.0 | 0.00 | 0.00 | 0.00 | 84 | 1015.1 |
| 20260504180004 | 55 | 157 | 5.0 | 13.0 | 0.00 | 0.00 | 0.00 | 83 | 1014.9 |
| 20260504175425 | 55 | 157 | 5.0 | 15.0 | 0.00 | 0.00 | 0.00 | 83 | 1014.9 |
| 20260504174504 | 55 | 157 | 4.0 | 10.0 | 0.00 | 0.00 | 0.00 | 82 | 1014.8 |
| 20260504173604 | 55 | 157 | 5.0 | 12.0 | 0.00 | 0.00 | 0.00 | 82 | 1014.9 |
| 20260504172704 | 55 | 157 | 5.0 | 9.0 | 0.00 | 0.00 | 0.00 | 82 | 1014.8 |
| 20260504171804 | 55 | 157 | 5.0 | 16.0 | 0.00 | 0.00 | 0.00 | 81 | 1014.6 |
| 20260504170904 | 55 | 157 | 5.0 | 16.0 | 0.00 | 0.00 | 0.00 | 81 | 1014.5 |
| 20260504150903 | 56 | 157 | 7.0 | 16.0 | 0.00 | 0.00 | 0.00 | 79 | 1013.8 |
| 20260504140904 | 57 | 157 | 7.0 | 17.0 | 0.00 | 0.00 | 0.00 | 79 | 1013.4 |
| 20260504081804 | 58 | 157 | 10.0 | 25.0 | 0.00 | 0.00 | 0.00 | 75 | 1010.3 |
| 20260504080905 | 58 | 157 | 8.0 | 18.0 | 0.00 | 0.00 | 0.00 | 74 | 1010.1 |